Tongxin Jishu Shiyan 4

operational
NORAD ID: 44637 Int'l Des: 2019-070 Owner: CASC Country: CN
HEOCIRCULARGSO

Über Tongxin Jishu Shiyan 4

Beschreibung wird geladen...

Live-Position

3D-Globus wird geladen...

Nächste Überflüge

Höhenverlauf

Altitude vs Time

uPlot chart will show altitude changes over time

Zweizeiliger Elementsatz

1 44637U 19070A 26063.17197498 -.00000182 00000-0 00000+0 0 9995
2 44637 0.0703 277.0113 0007451 95.5272 294.8003 1.00270368 23417
Epoch: 4. März 2026 • Age: 12 hours

Aktueller Status

Höhe 35767.9 km
Geschwindigkeit 3.08 km/s
Subsatellitenpunkt 0.00°N, 83.59°E
Startdatum 17. Okt. 2019
Alter 6.3 years
Typ other

Technische Details

Klassifizierung Payload
Masse 4000.00 kg
Trockenmasse 2500.00 kg
Gesamtmasse 4000.00 kg
Länge 5.00 m
Durchmesser 2.50 m
Spannweite 32.00 m
Form Box+ 2 panels +dish
Hersteller CAST
Bus-Typ DFH-4
Phasenstatus In Orbit
Besitzer/Staat CASC/CN

Große Konstellationen

Loading constellations...